EWG72D LOWS-EDDH

Flight info

Callsign EWG72D
Flight time 1h 9m
Altitude 34000
Route INROM DCT SIMBA Y700 NENUM DCT EPTEU DCT RUDNO M736 AKOSI/N0440F360 DCT ALOSO DCT KENIG DCT ABGUS DCT DIRBO/N0392F230 T902 RARUP RARUP3P
Aircraft A319/M-SDE3FGHIRWY/LB1

Departure

Time 2026-04-26 11:24
Airport Salzburg Airport (LOWS)

Arrival

Time 2026-04-26 12:33
Airport Hamburg Helmut Schmidt Airport (EDDH)
Time Latitude Longitude Altitude Speed Heading
2026-04-26 10:48 47.79091 12.99954 1422 ft 0 kts 283°
2026-04-26 10:59 47.79091 12.99955 1422 ft 0 kts 283°
2026-04-26 11:15 47.79091 12.99956 1422 ft 1 kts 283°
2026-04-26 11:15 47.79086 12.99991 1422 ft 4 kts 282°
2026-04-26 11:16 47.79083 13.00008 1422 ft 0 kts 281°
2026-04-26 11:16 47.79079 13.00040 1422 ft 4 kts 279°
2026-04-26 11:16 47.79079 13.00067 1422 ft 4 kts 199°
2026-04-26 11:16 47.79101 13.00063 1422 ft 4 kts 157°
2026-04-26 11:17 47.79115 13.00054 1422 ft 0 kts 157°
2026-04-26 11:19 47.79114 13.00054 1422 ft 1 kts 157°
2026-04-26 11:19 47.79111 13.00057 1422 ft 1 kts 157°
2026-04-26 11:20 47.79066 13.00086 1422 ft 11 kts 156°
2026-04-26 11:20 47.79014 13.00119 1422 ft 13 kts 156°
2026-04-26 11:20 47.78952 13.00257 1422 ft 14 kts 94°
2026-04-26 11:20 47.78911 13.00396 1417 ft 19 kts 156°
2026-04-26 11:21 47.78788 13.00475 1415 ft 20 kts 158°
2026-04-26 11:21 47.78656 13.00557 1417 ft 21 kts 157°
2026-04-26 11:21 47.78516 13.00646 1415 ft 22 kts 156°
2026-04-26 11:21 47.78373 13.00737 1415 ft 20 kts 157°
2026-04-26 11:22 47.78296 13.00785 1415 ft 0 kts 157°
2026-04-26 11:22 47.78247 13.00821 1415 ft 17 kts 149°
2026-04-26 11:22 47.78183 13.00995 1414 ft 20 kts 76°
2026-04-26 11:22 47.78261 13.01074 1413 ft 0 kts 338°
2026-04-26 11:23 47.78264 13.01072 1413 ft 6 kts 338°
2026-04-26 11:23 47.78524 13.00907 1416 ft 75 kts 337°
2026-04-26 11:23 47.79218 13.00472 1418 ft 140 kts 338°
2026-04-26 11:23 47.80133 12.99897 1996 ft 141 kts 339°
2026-04-26 11:24 47.81036 12.99329 2671 ft 142 kts 336°
2026-04-26 11:24 47.82037 12.98863 2920 ft 165 kts 358°
2026-04-26 11:24 47.83206 12.99378 3192 ft 191 kts 31°
2026-04-26 11:24 47.84329 13.00617 3577 ft 212 kts 35°
2026-04-26 11:25 47.85600 13.02021 3961 ft 241 kts 34°
2026-04-26 11:25 47.87018 13.03558 4557 ft 262 kts 33°
2026-04-26 11:25 47.88528 13.05185 5421 ft 272 kts 33°
2026-04-26 11:25 47.90072 13.06855 6341 ft 278 kts 33°
2026-04-26 11:26 47.91644 13.08562 7290 ft 280 kts 33°
2026-04-26 11:26 47.93199 13.10257 8260 ft 282 kts 33°
2026-04-26 11:26 47.94782 13.11982 9235 ft 283 kts 33°
2026-04-26 11:26 47.96385 13.13727 10180 ft 287 kts 32°
2026-04-26 11:27 47.98093 13.15431 10552 ft 306 kts 24°
2026-04-26 11:27 48.00134 13.16546 10971 ft 319 kts
2026-04-26 11:27 48.02353 13.16818 11654 ft 322 kts 355°
2026-04-26 11:27 48.04556 13.16213 12387 ft 324 kts 340°
2026-04-26 11:28 48.05929 13.15335 12864 ft 326 kts 332°
2026-04-26 11:28 48.07942 13.13723 13618 ft 330 kts 331°
2026-04-26 11:28 48.09973 13.12088 14300 ft 334 kts 331°
2026-04-26 11:28 48.12033 13.10429 14937 ft 338 kts 331°
2026-04-26 11:29 48.14116 13.08750 15577 ft 342 kts 331°
2026-04-26 11:29 48.16219 13.07054 16221 ft 346 kts 331°
2026-04-26 11:29 48.18345 13.05340 16866 ft 349 kts 331°
2026-04-26 11:29 48.20503 13.03602 17511 ft 353 kts 331°
2026-04-26 11:30 48.22732 13.02026 18120 ft 357 kts 339°
2026-04-26 11:30 48.25154 13.01088 18721 ft 362 kts 350°
2026-04-26 11:30 48.27655 13.00544 19278 ft 365 kts 351°
2026-04-26 11:30 48.30178 12.99998 19849 ft 368 kts 351°
2026-04-26 11:31 48.32724 12.99445 20427 ft 371 kts 351°
2026-04-26 11:31 48.35255 12.98891 20996 ft 374 kts 350°
2026-04-26 11:31 48.37843 12.98320 21542 ft 378 kts 350°
2026-04-26 11:31 48.40453 12.97741 22095 ft 381 kts 350°
2026-04-26 11:32 48.43087 12.97160 22627 ft 384 kts 350°
2026-04-26 11:32 48.45740 12.96575 23164 ft 387 kts 350°
2026-04-26 11:32 48.48411 12.95983 23694 ft 390 kts 349°
2026-04-26 11:32 48.51112 12.95379 24146 ft 393 kts 349°
2026-04-26 11:33 48.53824 12.94771 24595 ft 396 kts 349°
2026-04-26 11:33 48.56560 12.94165 25025 ft 398 kts 349°
2026-04-26 11:33 48.59308 12.93566 25459 ft 401 kts 349°
2026-04-26 11:33 48.62077 12.92967 25883 ft 403 kts 349°
2026-04-26 11:34 48.64860 12.92366 26313 ft 406 kts 349°
2026-04-26 11:34 48.67663 12.91757 26734 ft 408 kts 349°
2026-04-26 11:34 48.70478 12.91137 27138 ft 410 kts 349°
2026-04-26 11:34 48.73310 12.90510 27554 ft 413 kts 349°
2026-04-26 11:35 48.76161 12.89881 27956 ft 415 kts 349°
2026-04-26 11:35 48.78990 12.89258 28363 ft 418 kts 349°
2026-04-26 11:35 48.81875 12.88626 28779 ft 420 kts 349°
2026-04-26 11:35 48.84779 12.87993 29178 ft 423 kts 349°
2026-04-26 11:36 48.87697 12.87355 29584 ft 425 kts 349°
2026-04-26 11:36 48.90628 12.86714 29967 ft 427 kts 349°
2026-04-26 11:36 48.93578 12.86067 30327 ft 430 kts 349°
2026-04-26 11:36 48.96545 12.85413 30626 ft 432 kts 349°
2026-04-26 11:37 48.99530 12.84755 30947 ft 434 kts 349°
2026-04-26 11:37 49.02533 12.84090 31244 ft 437 kts 349°
2026-04-26 11:37 49.05549 12.83422 31547 ft 439 kts 349°
2026-04-26 11:37 49.08575 12.82749 31852 ft 441 kts 349°
2026-04-26 11:38 49.11609 12.81985 32198 ft 440 kts 344°
2026-04-26 11:38 49.14471 12.80594 32595 ft 436 kts 334°
2026-04-26 11:38 49.17154 12.78504 32990 ft 432 kts 325°
2026-04-26 11:38 49.19565 12.75791 33394 ft 429 kts 316°
2026-04-26 11:39 49.21690 12.72616 33800 ft 427 kts 312°
2026-04-26 11:39 49.23777 12.69378 34170 ft 427 kts 312°
2026-04-26 11:39 49.27897 12.62988 34267 ft 416 kts 312°
2026-04-26 11:40 49.31939 12.56714 34255 ft 413 kts 312°
2026-04-26 11:40 49.36265 12.50889 34246 ft 415 kts 319°
2026-04-26 11:42 49.54335 12.28864 34261 ft 415 kts 319°
2026-04-26 11:43 49.58848 12.23331 34263 ft 415 kts 319°
2026-04-26 11:43 49.63359 12.17777 34251 ft 415 kts 318°
2026-04-26 11:44 49.67874 12.12214 34244 ft 416 kts 319°
2026-04-26 11:44 49.72963 12.07899 34244 ft 423 kts 338°
2026-04-26 11:45 49.78698 12.05621 34245 ft 426 kts 343°
2026-04-26 11:45 49.84462 12.03462 34254 ft 426 kts 343°
2026-04-26 11:46 49.90183 12.01287 34256 ft 426 kts 343°
2026-04-26 11:46 49.95950 11.99096 34269 ft 426 kts 343°
2026-04-26 11:47 50.01711 11.96907 34277 ft 426 kts 343°
2026-04-26 11:47 50.07476 11.94710 34293 ft 426 kts 343°
2026-04-26 11:48 50.13241 11.92502 34287 ft 427 kts 343°
2026-04-26 11:48 50.19008 11.90277 34289 ft 427 kts 342°
2026-04-26 11:49 50.24786 11.88041 34288 ft 428 kts 342°
2026-04-26 11:49 50.30563 11.85809 34303 ft 428 kts 342°
2026-04-26 11:50 50.36344 11.83574 34299 ft 428 kts 342°
2026-04-26 11:50 50.42085 11.81349 34299 ft 428 kts 342°
2026-04-26 11:51 50.47863 11.79110 34300 ft 427 kts 342°
2026-04-26 11:51 50.53638 11.76864 34299 ft 427 kts 342°
2026-04-26 11:52 50.59406 11.74610 34297 ft 427 kts 342°
2026-04-26 11:52 50.65172 11.72351 34295 ft 427 kts 343°
2026-04-26 11:53 50.70937 11.70081 34288 ft 428 kts 342°
2026-04-26 11:54 50.79504 11.66160 34302 ft 427 kts 339°
2026-04-26 11:54 50.85177 11.63369 34300 ft 427 kts 339°
2026-04-26 11:55 50.90865 11.60640 34296 ft 427 kts 340°
2026-04-26 11:55 50.96530 11.57970 34300 ft 427 kts 340°
2026-04-26 11:56 51.02228 11.55272 34313 ft 427 kts 340°
2026-04-26 11:56 51.07915 11.52567 34317 ft 427 kts 340°
2026-04-26 11:57 51.13601 11.49850 34315 ft 426 kts 340°
2026-04-26 11:57 51.19283 11.47118 34317 ft 426 kts 340°
2026-04-26 11:58 51.24956 11.44399 34340 ft 425 kts 340°
2026-04-26 11:58 51.30607 11.41680 34340 ft 423 kts 340°
2026-04-26 11:59 51.36202 11.38970 34337 ft 422 kts 340°
2026-04-26 11:59 51.41818 11.36247 34329 ft 421 kts 340°
2026-04-26 12:00 51.47421 11.33514 34324 ft 421 kts 340°
2026-04-26 12:00 51.53025 11.30794 34334 ft 420 kts 340°
2026-04-26 12:01 51.58622 11.28075 34339 ft 420 kts 340°
2026-04-26 12:01 51.64027 11.24698 34327 ft 414 kts 328°
2026-04-26 12:02 51.69079 11.20378 34327 ft 414 kts 329°
2026-04-26 12:02 51.74181 11.16044 34314 ft 415 kts 329°
2026-04-26 12:03 51.79284 11.11698 34316 ft 415 kts 329°
2026-04-26 12:03 51.84390 11.07350 34315 ft 415 kts 331°
2026-04-26 12:04 51.89937 11.04628 34320 ft 422 kts 349°
2026-04-26 12:04 51.95769 11.03401 34317 ft 423 kts 349°
2026-04-26 12:05 52.01598 11.02169 34330 ft 422 kts 348°
2026-04-26 12:05 52.07381 11.00926 34334 ft 421 kts 348°
2026-04-26 12:06 52.13188 10.99671 34328 ft 420 kts 348°
2026-04-26 12:06 52.18978 10.98426 34190 ft 418 kts 348°
2026-04-26 12:06 52.21865 10.97806 33643 ft 418 kts 348°
2026-04-26 12:07 52.24731 10.97189 33194 ft 414 kts 348°
2026-04-26 12:07 52.27579 10.96574 32785 ft 410 kts 348°
2026-04-26 12:07 52.30394 10.95967 32305 ft 406 kts 348°
2026-04-26 12:07 52.33181 10.95368 31776 ft 402 kts 348°
2026-04-26 12:08 52.35945 10.94771 31315 ft 400 kts 348°
2026-04-26 12:08 52.38656 10.94184 30870 ft 397 kts 348°
2026-04-26 12:08 52.41382 10.93592 30441 ft 394 kts 348°
2026-04-26 12:08 52.44094 10.93004 29968 ft 391 kts 348°
2026-04-26 12:09 52.46783 10.92423 29504 ft 388 kts 348°
2026-04-26 12:09 52.49445 10.91847 29063 ft 385 kts 348°
2026-04-26 12:09 52.52086 10.91269 28675 ft 380 kts 348°
2026-04-26 12:09 52.54693 10.90698 28287 ft 376 kts 348°
2026-04-26 12:10 52.57277 10.90129 27875 ft 373 kts 348°
2026-04-26 12:10 52.59841 10.89564 27481 ft 370 kts 348°
2026-04-26 12:10 52.62386 10.89007 27097 ft 368 kts 348°
2026-04-26 12:10 52.64912 10.88454 26704 ft 365 kts 348°
2026-04-26 12:11 52.67385 10.87910 26309 ft 362 kts 348°
2026-04-26 12:11 52.69870 10.87361 25921 ft 360 kts 348°
2026-04-26 12:11 52.72344 10.86815 25523 ft 357 kts 348°
2026-04-26 12:11 52.74795 10.86272 25134 ft 354 kts 348°
2026-04-26 12:12 52.77228 10.85735 24764 ft 351 kts 348°
2026-04-26 12:12 52.79642 10.85204 24378 ft 349 kts 348°
2026-04-26 12:12 52.82034 10.84678 23939 ft 345 kts 349°
2026-04-26 12:12 52.83607 10.84331 23532 ft 343 kts 349°
2026-04-26 12:13 52.86754 10.83662 22719 ft 339 kts 349°
2026-04-26 12:13 52.89084 10.83188 22120 ft 336 kts 349°
2026-04-26 12:13 52.91394 10.82726 21543 ft 333 kts 349°
2026-04-26 12:13 52.93679 10.82270 20980 ft 330 kts 349°
2026-04-26 12:14 52.95917 10.81819 20427 ft 327 kts 349°
2026-04-26 12:14 52.98167 10.81365 19884 ft 324 kts 349°
2026-04-26 12:14 53.00405 10.80909 19454 ft 323 kts 349°
2026-04-26 12:14 53.02628 10.80453 19048 ft 321 kts 349°
2026-04-26 12:15 53.04832 10.79999 18666 ft 319 kts 349°
2026-04-26 12:15 53.07026 10.79546 18203 ft 316 kts 349°
2026-04-26 12:15 53.09194 10.79103 17627 ft 313 kts 349°
2026-04-26 12:15 53.11349 10.78665 17065 ft 311 kts 350°
2026-04-26 12:16 53.13506 10.78225 16626 ft 310 kts 350°
2026-04-26 12:16 53.15648 10.77785 16153 ft 310 kts 350°
2026-04-26 12:16 53.17785 10.77344 15714 ft 308 kts 350°
2026-04-26 12:16 53.19912 10.76904 15268 ft 308 kts 350°
2026-04-26 12:17 53.22031 10.76471 14852 ft 306 kts 351°
2026-04-26 12:17 53.24142 10.76040 14464 ft 304 kts 351°
2026-04-26 12:17 53.26237 10.75606 14096 ft 302 kts 351°
2026-04-26 12:17 53.28288 10.75178 13706 ft 299 kts 351°
2026-04-26 12:18 53.30348 10.74755 13293 ft 297 kts 351°
2026-04-26 12:18 53.32391 10.74338 12875 ft 295 kts 351°
2026-04-26 12:18 53.34422 10.73919 12474 ft 293 kts 351°
2026-04-26 12:18 53.36439 10.73500 12076 ft 291 kts 351°
2026-04-26 12:19 53.38443 10.73083 11685 ft 289 kts 351°
2026-04-26 12:19 53.40434 10.72661 11302 ft 288 kts 351°
2026-04-26 12:19 53.42413 10.72234 11016 ft 286 kts 351°
2026-04-26 12:19 53.44387 10.71806 10772 ft 285 kts 351°
2026-04-26 12:20 53.46325 10.71387 10609 ft 276 kts 351°
2026-04-26 12:20 53.48210 10.70981 10413 ft 271 kts 351°
2026-04-26 12:20 53.50082 10.70577 10318 ft 270 kts 351°
2026-04-26 12:20 53.51947 10.70174 10341 ft 271 kts 350°
2026-04-26 12:21 53.53791 10.69781 10337 ft 271 kts 351°
2026-04-26 12:21 53.55658 10.69384 10338 ft 270 kts 351°
2026-04-26 12:21 53.57526 10.68987 10341 ft 270 kts 351°
2026-04-26 12:21 53.59391 10.68591 10342 ft 270 kts 351°
2026-04-26 12:22 53.61260 10.68195 10325 ft 270 kts 351°
2026-04-26 12:22 53.63094 10.67671 10003 ft 266 kts 346°
2026-04-26 12:22 53.64899 10.66955 9564 ft 266 kts 345°
2026-04-26 12:22 53.66693 10.66215 9189 ft 265 kts 345°
2026-04-26 12:23 53.68435 10.65217 8815 ft 264 kts 336°
2026-04-26 12:23 53.70110 10.63953 8452 ft 264 kts 335°
2026-04-26 12:23 53.71768 10.62670 8021 ft 262 kts 335°
2026-04-26 12:23 53.73423 10.61378 7538 ft 262 kts 335°
2026-04-26 12:24 53.75056 10.60095 7167 ft 262 kts 334°
2026-04-26 12:24 53.76624 10.58542 6846 ft 262 kts 326°
2026-04-26 12:24 53.78103 10.56751 6494 ft 262 kts 319°
2026-04-26 12:25 53.79665 10.51346 5802 ft 261 kts 285°
2026-04-26 12:25 53.80122 10.48375 5483 ft 260 kts 284°
2026-04-26 12:25 53.80580 10.45425 5167 ft 258 kts 284°
2026-04-26 12:25 53.81045 10.42497 4859 ft 256 kts 284°
2026-04-26 12:26 53.81364 10.39591 4723 ft 247 kts 271°
2026-04-26 12:26 53.81138 10.36774 4589 ft 239 kts 252°
2026-04-26 12:26 53.80409 10.34307 4448 ft 231 kts 233°
2026-04-26 12:26 53.79410 10.32245 4308 ft 223 kts 230°
2026-04-26 12:27 53.78460 10.30287 4170 ft 212 kts 231°
2026-04-26 12:27 53.77551 10.28418 4070 ft 200 kts 230°
2026-04-26 12:27 53.76689 10.26650 4001 ft 191 kts 230°
2026-04-26 12:27 53.75843 10.24917 3852 ft 191 kts 230°
2026-04-26 12:28 53.75000 10.23190 3623 ft 189 kts 230°
2026-04-26 12:28 53.74163 10.21478 3369 ft 188 kts 230°
2026-04-26 12:28 53.73325 10.19766 3126 ft 189 kts 230°
2026-04-26 12:28 53.72503 10.18086 2853 ft 182 kts 231°
2026-04-26 12:29 53.71723 10.16494 2601 ft 171 kts 231°
2026-04-26 12:29 53.70983 10.14984 2375 ft 163 kts 230°
2026-04-26 12:29 53.69647 10.12259 1946 ft 138 kts 231°
2026-04-26 12:30 53.69049 10.11042 1774 ft 132 kts 231°
2026-04-26 12:30 53.68470 10.09866 1570 ft 129 kts 231°
2026-04-26 12:30 53.67896 10.08695 1375 ft 128 kts 231°
2026-04-26 12:31 53.66758 10.06374 999 ft 129 kts 231°
2026-04-26 12:31 53.66185 10.05211 830 ft 129 kts 231°
2026-04-26 12:31 53.65612 10.04044 678 ft 129 kts 231°
2026-04-26 12:31 53.65035 10.02876 496 ft 129 kts 231°
2026-04-26 12:32 53.64458 10.01711 337 ft 130 kts 232°
2026-04-26 12:32 53.63883 10.00541 178 ft 129 kts 232°
2026-04-26 12:32 53.62843 9.98431 44 ft 83 kts 230°
2026-04-26 12:33 53.62576 9.97890 41 ft 41 kts 230°
2026-04-26 12:33 53.62434 9.97854 44 ft 12 kts 114°
2026-04-26 12:33 53.62429 9.97897 45 ft 10 kts 94°
2026-04-26 12:33 53.62451 9.98058 44 ft 17 kts 66°
2026-04-26 12:34 53.62532 9.98232 47 ft 19 kts 49°
2026-04-26 12:34 53.62623 9.98416 47 ft 22 kts 50°
2026-04-26 12:34 53.62729 9.98629 47 ft 25 kts 50°
2026-04-26 12:34 53.62835 9.98843 47 ft 22 kts 50°
2026-04-26 12:35 53.62926 9.99026 47 ft 18 kts 51°
2026-04-26 12:35 53.63001 9.99183 47 ft 17 kts 51°
2026-04-26 12:35 53.63038 9.99259 47 ft 3 kts 51°
2026-04-26 12:35 53.63104 9.99412 46 ft 23 kts 55°
2026-04-26 12:36 53.63197 9.99620 48 ft 19 kts 50°
2026-04-26 12:36 53.63180 9.99799 48 ft 18 kts 151°
2026-04-26 12:36 53.63059 9.99903 48 ft 21 kts 153°
2026-04-26 12:36 53.62940 10.00007 48 ft 16 kts 153°
2026-04-26 12:37 53.62874 10.00047 46 ft 16 kts 160°
2026-04-26 12:37 53.62796 10.00114 48 ft 9 kts 153°
2026-04-26 12:37 53.62787 10.00176 48 ft 7 kts 55°
2026-04-26 12:37 53.62806 10.00235 47 ft 3 kts 63°
2026-04-26 12:38 53.62809 10.00247 48 ft 0 kts 63°